Theta_e
302 302 302 302 302 301 300 299 299 300 300 299 299 301 301 302 303 305 306 307 309 310 311 313 312 316 318 317 316 316 315 313 316 313 308 308 308 307 308 311 310 308 308
300 301 301 301 301 300 300 299 298 299 299 299 300 301 301 302 302 304 305 307 308 308 309 312 312 314 317 318 315 314 313 314 316 310 307 303 304 304 303 303 304 303 305
299 300 300 301 302 300 299 298 298 298 298 299 300 301 302 302 302 303 304 305 306 308 309 311 313 314 315 317 315 314 314 311 314 312 311 304 301 301 302 300 301 302 303
300 300 300 300 300 300 299 297 297 297 297 299 299 298 297 297 300 301 304 304 306 306 308 310 311 311 314 316 317 317 316 314 311 313 312 313 307 302 298 300 299 300 301
300 299 299 299 299 298 299 298 296 296 297 299 299 298 298 299 302 303 300 304 304 304 306 307 308 310 313 315 318 317 316 315 313 313 310 310 311 309 304 298 297 297 298
299 299 299 298 298 298 298 297 295 295 297 298 299 298 297 298 300 300 302 302 302 302 304 306 306 308 311 313 318 318 317 316 316 314 312 310 309 307 307 302 299 298 296
298 298 298 298 298 297 296 296 294 294 297 298 298 298 297 298 299 300 301 301 300 301 302 303 305 307 309 312 316 318 318 317 316 314 313 313 312 310 315 307 301 299 295
298 298 298 298 297 296 296 294 293 294 297 298 297 298 298 298 299 299 298 300 300 300 301 303 304 305 308 312 315 318 318 318 317 315 314 313 312 312 313 310 305 299 296
297 298 297 298 296 296 295 293 293 295 297 297 297 297 297 297 297 295 297 298 298 300 301 302 303 305 309 314 316 318 318 317 317 316 315 314 313 312 314 314 311 307 299
297 298 297 297 296 295 294 293 293 296 297 296 296 297 297 297 298 296 295 297 298 300 300 302 303 306 312 316 319 319 318 317 316 316 315 314 314 314 316 316 316 314 308
297 298 297 296 296 294 293 292 294 296 296 296 297 296 296 296 297 295 296 297 298 299 300 301 304 311 318 319 319 318 318 316 315 315 315 313 313 313 316 317 316 310 306
297 297 297 295 294 293 292 292 294 296 295 296 296 295 295 296 297 296 297 297 297 299 300 301 307 316 318 319 318 316 316 314 313 313 314 313 313 313 314 314 310 305 304
298 296 295 294 294 293 292 291 294 296 295 296 296 294 294 295 297 296 296 296 297 298 299 301 306 312 314 315 315 314 313 312 313 313 312 312 313 311 311 307 304 301 299
298 297 295 294 294 293 292 291 294 296 295 295 294 293 294 295 295 296 295 296 296 297 298 300 302 304 306 307 307 306 304 302 302 304 308 309 310 308 305 303 301 300 297
288 292 293 294 294 292 291 291 294 296 296 295 293 293 294 295 295 294 294 295 296 296 297 300 300 300 300 302 302 301 300 299 298 297 298 300 297 297 301 303 301 299 297
291 289 292 290 290 288 290 290 291 293 296 295 292 293 294 294 292 293 293 294 295 295 296 296 296 295 295 294 296 299 299 298 298 295 295 296 294 294 294 296 298 299 298
298 296 294 289 289 289 290 290 293 294 295 293 291 292 292 290 291 291 292 292 292 294 294 294 293 292 292 293 293 293 296 296 295 294 294 292 292 293 295 293 293 290 294
296 294 295 293 290 291 289 292 294 294 294 294 291 292 293 289 288 288 291 291 292 292 293 294 293 292 291 292 292 291 291 289 289 289 290 291 290 290 292 293 291 290 289
295 295 296 294 292 291 290 291 293 293 293 293 292 290 292 289 289 288 288 289 290 290 290 291 293 292 291 291 292 292 290 288 287 287 288 289 288 288 291 290 289 287 287
294 294 294 293 292 290 289 290 291 291 291 292 291 291 290 290 289 288 287 287 288 287 288 288 289 287 290 291 291 291 288 287 286 286 286 287 287 288 288 287 285 283 284
293 293 292 291 291 289 288 288 289 290 291 290 290 289 290 290 290 288 288 288 288 288 288 287 287 287 288 290 291 292 289 287 287 286 286 286 288 289 287 288 285 284 284
290 291 291 290 289 286 287 287 288 289 288 288 287 286 286 287 288 286 286 286 287 287 287 286 286 286 287 288 290 290 290 290 286 286 286 286 289 288 287 286 286 284 284
289 290 289 286 285 285 286 285 285 286 286 285 284 284 284 284 285 285 285 286 286 287 287 287 289 287 286 286 287 289 289 288 285 285 287 288 287 287 286 285 284 282 283
286 286 285 284 283 284 285 286 285 285 286 285 284 284 284 284 284 286 286 288 288 288 286 286 287 287 287 286 286 286 286 285 286 285 283 283 284 284 283 283 284 282 280
285 285 284 284 284 284 285 285 285 285 286 286 285 284 285 285 285 285 287 287 286 287 286 286 286 286 286 285 286 287 285 285 284 284 285 285 284 284 283 284 284 284 283
285 284 284 284 284 284 284 283 285 286 286 286 285 285 285 285 285 285 285 284 285 285 286 286 286 284 286 287 287 288 286 285 285 285 285 284 284 283 283 283 283 283 283
Wind_Speed
5 5 4 4 3 3 3 3 3 3 4 4 5 5 5 5 3 3 5 7 4 3 6 3 3 3 2 6 4 7 11 9 11 8 8 5 7 8 5 6 6 7 6
8 7 6 4 5 2 3 3 2 3 4 4 4 4 6 5 4 3 5 4 4 3 6 4 4 2 2 7 8 4 5 9 11 9 5 3 3 7 7 5 5 6 4
9 8 6 5 3 4 3 2 1 4 4 5 4 4 5 3 3 4 4 4 5 4 5 5 4 2 2 2 10 9 8 7 6 11 4 4 3 3 4 6 4 4 4
6 5 4 4 3 1 3 2 1 3 3 4 4 4 4 4 2 3 4 5 4 5 5 4 4 4 2 4 6 8 5 11 9 6 2 3 5 4 3 2 4 4 5
6 5 3 1 3 4 3 1 1 2 2 3 4 3 4 4 4 3 5 3 3 5 3 4 3 5 3 4 8 9 9 8 8 6 2 4 4 4 4 3 3 3 3
5 3 3 3 4 4 3 1 1 1 2 3 4 4 4 5 5 3 4 4 3 3 4 4 4 5 5 5 4 7 10 9 7 4 3 5 3 3 3 4 3 4 3
5 5 5 5 4 5 4 1 1 0 1 2 3 4 5 7 7 5 4 5 3 2 3 5 4 4 6 6 2 5 8 10 8 8 5 2 2 3 1 6 4 3 2
5 5 4 4 4 4 4 3 1 1 1 4 4 4 5 4 5 7 6 5 4 5 5 6 5 6 7 7 5 5 6 10 8 10 6 4 3 3 5 5 8 4 2
6 5 4 4 4 5 5 3 2 2 2 5 4 4 4 5 5 4 6 4 6 5 7 7 6 6 8 8 8 7 8 9 8 9 8 5 3 2 2 6 6 6 4
5 5 5 5 4 4 5 4 3 2 4 3 3 4 5 5 5 4 6 7 7 7 7 7 6 6 8 9 9 7 8 8 6 6 9 5 3 5 3 2 2 1 3
5 4 5 5 5 5 5 5 4 3 4 2 4 4 5 6 4 4 6 7 7 7 7 6 5 4 9 10 8 7 8 8 7 8 9 8 5 3 3 3 3 3 3
4 4 5 7 6 6 6 5 5 4 3 4 4 4 4 6 5 4 6 6 7 6 6 5 1 3 7 7 7 7 7 8 8 8 9 7 5 5 4 3 4 4 4
6 5 5 7 7 7 6 6 5 5 2 4 5 5 5 5 6 6 7 7 7 7 6 4 5 6 6 7 7 6 6 5 6 6 6 6 6 5 3 4 5 5 4
4 6 6 7 7 7 7 7 6 6 3 5 5 5 5 6 7 7 7 7 7 7 6 6 7 7 8 7 7 8 7 7 6 6 6 6 6 6 6 5 7 6 5
6 7 5 5 7 8 6 7 7 6 4 6 5 5 4 5 7 7 7 6 6 6 7 8 10 10 8 5 8 8 8 8 8 7 6 5 6 9 7 5 5 7 5
8 8 7 8 7 7 8 7 5 6 5 7 5 4 5 5 5 6 7 8 8 8 9 11 11 12 8 12 12 9 8 6 8 7 7 7 7 8 9 9 8 5 5
6 7 9 9 9 10 10 10 9 7 8 7 4 5 5 5 5 5 6 8 9 9 12 12 12 13 12 18 17 13 8 8 8 7 6 6 5 7 7 12 12 9 11
5 5 8 10 11 9 7 9 9 8 7 8 6 4 5 5 5 5 6 7 6 9 9 10 11 11 11 16 18 15 11 10 10 9 7 7 7 7 6 5 6 6 5
2 3 8 11 14 12 10 10 9 7 6 7 6 5 4 5 5 6 6 5 7 8 8 7 10 9 10 12 12 11 8 9 8 6 6 7 6 7 7 6 5 3 3
3 7 8 11 13 12 11 11 10 9 7 6 6 5 6 5 5 5 5 3 5 6 5 7 7 6 8 12 12 9 4 6 4 5 6 11 7 8 7 5 4 3 1
8 8 10 12 13 12 10 8 9 9 7 6 6 5 4 6 6 4 3 4 5 5 5 6 6 8 7 8 13 11 5 3 4 3 3 3 9 9 10 8 5 4 3
9 8 10 11 11 10 10 9 9 7 8 8 6 5 4 3 4 6 3 3 5 5 5 5 5 4 5 9 11 11 10 6 5 3 2 3 8 9 8 6 8 6 3
8 5 8 10 9 8 7 8 5 8 8 8 6 4 4 3 3 5 5 3 3 3 3 3 3 2 2 3 7 8 8 7 4 3 6 10 8 7 7 10 7 4 2
6 5 6 8 9 9 5 7 9 7 9 9 7 5 5 4 2 2 3 3 2 2 2 2 2 2 2 2 2 2 3 7 6 6 6 7 6 8 5 3 5 3 3
5 6 6 6 9 9 6 5 9 10 9 8 8 7 4 4 4 1 1 1 3 3 2 1 2 3 2 2 5 4 3 4 5 5 3 2 2 2 3 3 4 4 4
5 6 5 7 6 11 9 6 6 8 9 8 7 8 7 5 3 3 3 5 6 6 6 7 4 2 7 6 6 7 10 10 5 3 2 3 3 4 4 4 4 3 4
Wind_Direction
166 175 175 153 146 144 176 214 280 325 325 331 327 329 326 315 317 336 293 280 285 297 288 279 296 308 242 148 147 151 146 141 135 130 87 66 59 56 39 71 75 77 65
187 186 198 186 199 196 195 222 283 321 343 334 335 325 312 307 309 278 288 295 297 315 291 258 238 247 251 160 155 168 136 142 157 141 101 133 99 56 45 53 70 76 86
193 191 197 210 199 198 201 213 352 335 346 343 320 344 312 254 259 297 301 318 319 310 281 290 271 262 265 196 160 163 153 145 135 142 119 131 131 119 42 49 61 79 82
212 209 206 209 190 116 124 156 57 325 10 343 325 342 318 311 322 303 306 310 322 313 295 299 289 243 228 238 151 164 149 153 156 153 81 59 128 131 138 86 53 38 51
213 203 199 146 95 134 141 121 90 321 359 340 328 334 324 299 298 292 303 311 7 332 341 312 310 283 240 251 168 164 144 151 158 157 127 107 77 97 132 137 140 95 65
199 198 149 150 148 133 164 162 313 354 1 343 345 332 312 298 299 317 317 345 343 322 330 306 303 274 256 251 179 163 140 160 143 140 138 152 139 153 150 124 135 124 102
214 203 207 196 186 165 162 146 259 67 340 27 3 337 321 313 307 326 332 317 325 305 297 309 287 265 237 231 236 178 158 159 159 160 157 144 127 146 177 124 129 116 139
221 224 222 217 173 160 155 161 192 122 357 46 12 340 324 322 320 339 328 326 321 303 298 282 283 256 233 211 199 186 164 157 161 163 163 151 137 146 134 139 137 114 118
229 224 202 211 167 162 149 158 167 130 67 49 12 339 336 323 313 338 311 297 291 287 291 286 275 250 220 197 186 185 154 162 162 166 160 153 149 153 300 144 172 148 153
225 217 196 198 162 148 136 143 149 99 78 52 17 353 342 323 312 351 313 308 299 291 286 279 258 229 205 193 176 153 150 155 158 156 162 153 144 161 195 142 160 20 112
231 226 189 183 163 152 145 140 146 131 93 51 34 12 352 330 346 312 305 302 316 294 289 291 271 218 184 160 157 146 147 149 154 159 164 172 151 140 149 159 116 101 104
275 253 185 175 174 169 156 153 145 134 77 47 49 33 351 332 327 310 325 314 304 309 317 308 269 160 139 134 136 136 145 149 148 155 154 157 149 169 150 113 111 115 79
275 236 193 187 187 171 164 154 151 129 102 66 58 43 3 351 341 347 330 327 334 336 338 5 58 91 101 104 115 126 121 120 131 143 140 143 148 121 119 114 113 96 90
244 236 201 188 184 168 163 153 146 135 136 84 70 62 20 355 345 347 344 344 341 345 5 37 63 69 80 81 83 87 83 81 74 78 95 115 132 136 132 124 125 120 113
240 231 214 166 169 163 156 154 151 141 135 98 84 63 51 14 3 354 348 352 4 14 22 54 58 58 56 72 97 93 94 97 86 69 67 73 97 114 114 128 135 128 116
217 217 202 164 170 159 159 154 146 155 138 101 92 77 72 56 13 7 10 10 20 27 45 50 57 56 49 47 71 95 92 83 88 89 71 57 69 74 77 85 82 122 147
228 187 195 174 171 171 157 160 162 153 130 121 101 86 76 65 47 35 41 30 32 44 47 53 55 55 49 48 54 58 74 80 71 68 69 66 49 53 70 70 72 57 42
217 193 177 162 160 155 150 146 148 154 141 131 121 108 100 84 66 48 59 53 48 53 57 61 61 61 49 54 64 61 67 64 61 52 53 63 64 44 72 81 77 60 55
149 171 158 153 151 156 155 144 151 148 150 141 134 126 105 92 79 74 61 43 59 59 61 54 64 68 58 54 79 86 76 75 67 59 52 81 84 69 61 91 89 43 46
140 156 146 140 142 150 157 151 153 152 157 155 140 134 126 116 96 89 74 58 70 79 70 65 61 70 77 52 63 74 71 80 77 57 53 58 72 63 51 86 114 81 23
129 143 155 149 146 144 149 157 154 164 148 132 135 127 122 119 113 100 79 79 74 81 81 89 63 58 42 48 52 54 68 82 84 71 55 39 60 56 47 44 46 34 56
137 167 156 145 133 139 149 159 173 142 139 135 132 127 114 112 110 108 83 80 92 79 59 61 49 40 40 42 54 64 66 68 92 74 71 76 73 70 52 64 71 45 14
146 165 156 136 128 139 150 156 153 141 135 132 132 129 111 107 113 127 124 101 93 113 118 123 124 115 82 72 63 70 74 77 89 88 94 88 71 66 59 54 38 6 16
140 128 144 152 150 150 155 145 143 141 144 143 142 136 141 140 116 99 138 119 124 106 111 121 120 108 106 108 111 106 104 88 83 76 63 71 72 66 68 30 24 29 25
142 141 162 181 160 143 150 143 149 151 158 151 149 152 148 159 147 94 94 59 35 62 155 154 129 121 109 67 80 88 92 99 98 93 70 51 39 43 42 39 33 23 15
147 141 174 139 179 154 150 143 149 165 159 161 165 161 152 153 148 141 123 65 50 49 44 56 61 66 100 106 83 93 105 108 112 83 76 64 44 43 31 25 19 33 21